STARLINK-35389 (66434 NORAD) Tracking and Keplerian Element Data

This shows tracking and keplerian element data for the satellite.

Feedback or suggestion? Click here.




ElementValue
Catalog66434
NameSTARLINK-35389
Epoch Orbit729
Epoch Day354.04865017
Epoch Year2025
RAAN5.6384
Inclination42.9965
Eccentricity9.16E-05
Argument of Perigee141.2455
Mean Anonmoly218.8467
Mean Motion15.40728099
Decay Rate0.00031231
L11 66434U 25259N 25354.04865017 .00031231 00000+0 75115-3 0 9997
L22 66434 42.9965 5.6384 0000916 141.2455 218.8467 15.40728099 7293



Live tracking and technical data element details for STARLINK-35389 (NORAD 66434). STARLINK-35389 can be tracked NOW for your location showing map with azimuth and elevation plus other details from your city location.







IsCatalogInMostPopularTable: catalog: 66434, numindb: 18
Update: records affected: 1



GetName: 66434 STARLINK-35389

Hit Count: updated at: Mon, 20 Apr 2026 10:35:52 GMT